Weather History for Dublin, Ireland

Change the Weather History Date:

Tuesday, November 20, 2012

  Actual Average Record
Temperature  
Mean Temperature 50 °F -  
Max Temperature 56 °F 48 °F 56 °F (2012)
Min Temperature 44 °F 39 °F 30 °F (1996)
Degree Days  
Heating Degree Days 15    
Moisture  
Dew Point 43 °F    
Average Humidity 74    
Maximum Humidity 94    
Minimum Humidity 56    
Precipitation  
Precipitation 0.00 in 0.09 in - ()
Sea Level Pressure  
Sea Level Pressure 29.45 in    
Wind  
Wind Speed 12 mph ()    
Max Wind Speed 25 mph    
Max Gust Speed 40 mph    
Visibility 6.8 miles    
Events Rain    
Averages and records for this station are not official NWS values.
T = Trace of Precipitation, MM = Missing Value Source: Averaged Metar Reports

Daily Weather History Graph

Daily Weather History Graph

Search for Another Location

Airport:

Trip Planner

Search our weather history database for the weather conditions in past years. The results will help you decide how hot, cold, wet, or windy it might be!

Date:

Astronomy

Nov. 20, 2012 Rise Set
Actual Time 8:00 AM GMT 4:21 PM GMT
Civil Twilight 7:20 AM GMT 5:00 PM GMT
Nautical Twilight 6:37 AM GMT 5:44 PM GMT
Astronomical Twilight 5:55 AM GMT 6:25 PM GMT
Moon 12:59 PM GMT (11/20) No Moon Set
Length of Visible Light 9h 40m
Length of Day
8h 20m
Waxing Crescent, 49% of the Moon is Illuminated
Nov 20
Waxing Crescent
Nov 20
First Quarter
Nov 28
Full
Dec 6
Last Quarter
Dec 13
New

Hourly Weather History & Observations

Time (GMT) Temp. Windchill Dew Point Humidity Pressure Visibility Wind Dir Wind Speed Gust Speed Precip Events Conditions
12:00 AM 51 °F - 45 °F 72% 29.51 in 19 mi SE 8.9 mph - -   Partly Cloudy
12:00 AM 50.0 °F - 44.6 °F 82% 29.50 in 6.2 mi SE 9.2 mph - N/A   Partly Cloudy
12:30 AM 51.8 °F - 44.6 °F 76% 29.50 in 6.2 mi SSE 10.4 mph - N/A   Partly Cloudy
1:00 AM 51.8 °F - 44.6 °F 76% 29.47 in 6.2 mi SE 6.9 mph - N/A   Scattered Clouds
1:30 AM 51.8 °F - 44.6 °F 76% 29.47 in 6.2 mi ESE 10.4 mph - N/A   Scattered Clouds
2:00 AM 48.2 °F - 44.6 °F 87% 29.47 in 6.2 mi SE 8.1 mph - N/A   Mostly Cloudy
2:30 AM 48.2 °F - 46.4 °F 93% 29.44 in 6.2 mi ESE 6.9 mph - N/A   Mostly Cloudy
3:00 AM 51.8 °F - 46.4 °F 82% 29.44 in 6.2 mi SSE 11.5 mph - N/A   Mostly Cloudy
3:30 AM 51.8 °F - 48.2 °F 88% 29.42 in 6.2 mi SE 11.5 mph - N/A   Mostly Cloudy
4:00 AM 51.8 °F - 48.2 °F 88% 29.42 in 6.2 mi SSE 4.6 mph - N/A   Mostly Cloudy
4:30 AM 51.8 °F - 48.2 °F 88% 29.42 in 6.2 mi Variable 3.5 mph - N/A   Mostly Cloudy
5:00 AM 51.8 °F - 46.4 °F 82% 29.39 in 6.2 mi SE 9.2 mph - N/A   Mostly Cloudy
5:30 AM 53.6 °F - 48.2 °F 82% 29.39 in 6.2 mi SE 6.9 mph - N/A   Mostly Cloudy
6:00 AM 53 °F - 49 °F 80% 29.37 in 7 mi SE 11.2 mph - - Rain Light Drizzle
6:00 AM 53.6 °F - 48.2 °F 82% 29.36 in 6.2 mi SE 11.5 mph - N/A   Light Drizzle
6:30 AM 51.8 °F - 50.0 °F 94% 29.36 in 6.2 mi SSE 13.8 mph - N/A   Light Drizzle
7:00 AM 53.6 °F - 50.0 °F 88% 29.36 in 6.2 mi SSE 16.1 mph - N/A   Mostly Cloudy
7:30 AM 53.6 °F - 50.0 °F 88% 29.33 in 6.2 mi SSE 15.0 mph - N/A   Mostly Cloudy
8:00 AM 53.6 °F - 50.0 °F 88% 29.33 in 6.2 mi SE 12.7 mph - N/A   Mostly Cloudy
8:30 AM 53.6 °F - 50.0 °F 88% 29.33 in 6.2 mi SSE 10.4 mph - N/A   Mostly Cloudy
9:00 AM 53.6 °F - 50.0 °F 88% 29.33 in 6.2 mi SSE 11.5 mph - N/A   Mostly Cloudy
9:30 AM 53.6 °F - 50.0 °F 88% 29.33 in 6.2 mi South 9.2 mph - N/A   Mostly Cloudy
10:00 AM 53.6 °F - 50.0 °F 88% 29.33 in 6.2 mi SSW 5.8 mph - N/A   Scattered Clouds
10:30 AM 55.4 °F - 48.2 °F 77% 29.36 in 6.2 mi SSW 16.1 mph 27.6 mph N/A   Scattered Clouds
11:00 AM 55.4 °F - 44.6 °F 67% 29.39 in 6.2 mi SW 18.4 mph - N/A   Mostly Cloudy
11:30 AM 53.6 °F - 42.8 °F 67% 29.39 in 6.2 mi SW 17.3 mph - N/A   Partly Cloudy
12:00 PM 54 °F - 43 °F 56% 29.41 in 28 mi SSW 17.9 mph - -   Partly Cloudy
12:00 PM 53.6 °F - 42.8 °F 67% 29.39 in 6.2 mi SSW 18.4 mph 29.9 mph N/A   Partly Cloudy
12:30 PM 55.4 °F - 42.8 °F 63% 29.39 in 6.2 mi SSW 12.7 mph - N/A   Scattered Clouds
1:00 PM 55.4 °F - 41.0 °F 58% 29.42 in 6.2 mi South 15.0 mph - N/A   Scattered Clouds
1:30 PM 55.4 °F - 42.8 °F 63% 29.42 in 6.2 mi SSW 15.0 mph - N/A   Scattered Clouds
2:00 PM 53.6 °F - 41.0 °F 62% 29.42 in 6.2 mi SSW 18.4 mph - N/A   Partly Cloudy
2:30 PM 53.6 °F - 39.2 °F 58% 29.39 in 6.2 mi SSW 23.0 mph 39.1 mph N/A   Partly Cloudy
3:00 PM 51.8 °F - 37.4 °F 58% 29.42 in 6.2 mi SW 24.2 mph 38.0 mph N/A   Partly Cloudy
3:30 PM 51.8 °F - 39.2 °F 62% 29.42 in 6.2 mi SW 15.0 mph - N/A   Scattered Clouds
4:00 PM 50.0 °F - 37.4 °F 62% 29.44 in 6.2 mi SSW 20.7 mph - N/A   Scattered Clouds
4:30 PM 50.0 °F - 37.4 °F 62% 29.44 in 6.2 mi SSW 19.6 mph - N/A   Scattered Clouds
5:00 PM 48.2 °F - 37.4 °F 66% 29.44 in 6.2 mi SW 19.6 mph - N/A   Scattered Clouds
5:30 PM 48.2 °F - 37.4 °F 66% 29.47 in 6.2 mi SW 20.7 mph - N/A   Scattered Clouds
6:00 PM 48 °F - 37 °F 57% 29.51 in 19 mi SW 22.4 mph - -   Scattered Clouds
6:00 PM 48.2 °F - 37.4 °F 66% 29.50 in 6.2 mi SW 21.9 mph - N/A   Scattered Clouds
6:30 PM 48.2 °F - 37.4 °F 66% 29.50 in 6.2 mi SW 23.0 mph - N/A   Scattered Clouds
7:00 PM 48.2 °F - 37.4 °F 66% 29.53 in 6.2 mi SW 24.2 mph - N/A   Partly Cloudy
7:30 PM 46.4 °F 37.9 °F 35.6 °F 66% 29.56 in 6.2 mi SW 25.3 mph 40.3 mph N/A   Scattered Clouds
8:00 PM 46.4 °F 38.5 °F 37.4 °F 71% 29.56 in 6.2 mi SW 21.9 mph 33.4 mph N/A   Mostly Cloudy
8:30 PM 44.6 °F 36.4 °F 37.4 °F 76% 29.59 in 6.2 mi SW 20.7 mph - N/A   Mostly Cloudy
9:00 PM 44.6 °F 37.2 °F 35.6 °F 71% 29.59 in 6.2 mi SW 17.3 mph - N/A   Mostly Cloudy
9:30 PM 44.6 °F 37.4 °F 35.6 °F 71% 29.59 in 6.2 mi WSW 16.1 mph - N/A   Mostly Cloudy
10:00 PM 44.6 °F 38.8 °F 37.4 °F 76% 29.62 in - SW 11.5 mph - N/A   Clear
10:30 PM 44.6 °F 39.7 °F 37.4 °F 76% 29.62 in - SSW 9.2 mph - N/A   Clear
11:00 PM 44.6 °F 39.7 °F 37.4 °F 76% 29.62 in - SSW 9.2 mph - N/A   Clear
11:30 PM 44.6 °F 41.4 °F 37.4 °F 76% 29.65 in - South 5.8 mph - N/A   Clear